Weather History for Pasco, WA

Change the Weather History Date:

Sunday, January 27, 2013

  Actual Average Record
Temperature  
Mean Temperature 38 °F 36 °F  
Max Temperature 44 °F 44 °F 57 °F (2003)
Min Temperature 31 °F 29 °F 10 °F (1997)
Degree Days  
Heating Degree Days 27 29  
Month to date heating degree days 918 822  
Since 1 July heating degree days 2825 3038  
Cooling Degree Days 0 0  
Month to date cooling degree days 0 0  
Year to date cooling degree days 0 0  
Moisture  
Dew Point 32 °F    
Average Humidity 81    
Maximum Humidity 96    
Minimum Humidity 65    
Precipitation  
Precipitation 0.00 in - 0.64 in (2008)
Month to date precipitation 0.36  
Year to date precipitation 0.36  
Snow  
Snow 0.00 in - - ()
Snow Depth 0.00 in    
Sea Level Pressure  
Sea Level Pressure 30.04 in    
Wind  
Wind Speed 2 mph (West)    
Max Wind Speed 18 mph    
Max Gust Speed 22 mph    
Visibility 9 miles    
Events      
T = Trace of Precipitation, MM = Missing Value Source: NWS Daily Summary

Daily Weather History Graph

Daily Weather History Graph

Search for Another Location

Airport:

Trip Planner

Search our weather history database for the weather conditions in past years. The results will help you decide how hot, cold, wet, or windy it might be!

Date:

Astronomy

Jan. 27, 2013 Rise Set
Actual Time 7:24 AM PST 4:54 PM PST
Civil Twilight 6:52 AM PST 5:26 PM PST
Nautical Twilight 6:15 AM PST 6:03 PM PST
Astronomical Twilight 5:40 AM PST 6:38 PM PST
Moon 6:00 PM PST (1/27) 7:15 AM PST (1/27)
Length of Visible Light 10h 34m
Length of Day
9h 29m
Full, 100% of the Moon is Illuminated
Jan 27
Full
Feb 3
Last Quarter
Feb 9
New
Feb 17
First Quarter
Feb 25
Full

Hourly Weather History & Observations

Time (PST) Temp. Windchill Dew Point Humidity Pressure Visibility Wind Dir Wind Speed Gust Speed Precip Events Conditions
12:53 AM 33.1 °F - 32.0 °F 96% 30.05 in 6.0 mi Calm Calm - N/A   Overcast
1:16 AM 32.0 °F 27.5 °F 32.0 °F 100% 30.04 in 5.0 mi NW 4.6 mph - N/A   Overcast
1:53 AM 32.0 °F - 30.9 °F 96% 30.05 in 8.0 mi Calm Calm - N/A   Overcast
2:53 AM 33.1 °F - 30.9 °F 92% 30.06 in 10.0 mi Calm Calm - N/A   Overcast
4:53 AM 33.1 °F - 30.9 °F 92% 30.06 in 10.0 mi Calm Calm - N/A   Overcast
5:53 AM 33.1 °F - 30.9 °F 92% 30.05 in 8.0 mi Calm Calm - N/A   Overcast
6:53 AM 33.1 °F - 30.9 °F 92% 30.06 in 10.0 mi Calm Calm - N/A   Overcast
7:53 AM 32.0 °F - 30.9 °F 96% 30.07 in 8.0 mi Calm Calm - N/A   Mostly Cloudy
8:53 AM 33.1 °F - 30.9 °F 92% 30.08 in 10.0 mi Calm Calm - N/A   Mostly Cloudy
9:53 AM 35.1 °F 32.2 °F 30.9 °F 85% 30.09 in 10.0 mi NW 3.5 mph - N/A   Overcast
10:53 AM 36.0 °F - 30.9 °F 82% 30.08 in 10.0 mi Calm Calm - N/A   Overcast
11:53 AM 37.9 °F - 32.0 °F 79% 30.07 in 10.0 mi Calm Calm - N/A   Mostly Cloudy
12:00 PM 39.2 °F - 33.8 °F 81% 30.05 in 10.0 mi Calm Calm - N/A   Mostly Cloudy
12:09 PM 39.2 °F 37.0 °F 32.0 °F 75% 30.05 in 10.0 mi NNE 3.5 mph - N/A   Mostly Cloudy
12:53 PM 39.9 °F - 33.1 °F 77% 30.04 in 10.0 mi Calm Calm - N/A   Scattered Clouds
1:53 PM 43.0 °F - 34.0 °F 71% 30.03 in 10.0 mi Calm Calm - N/A   Partly Cloudy
2:53 PM 44.1 °F - 33.1 °F 65% 30.01 in 10.0 mi Calm Calm - N/A   Clear
3:53 PM 42.1 °F - 33.1 °F 70% 30.01 in 10.0 mi Calm Calm - N/A   Clear
4:53 PM 36.0 °F 32.1 °F 30.9 °F 82% 30.02 in 10.0 mi NNW 4.6 mph - N/A   Partly Cloudy
5:53 PM 33.1 °F - 30.9 °F 92% 30.01 in 10.0 mi Calm Calm - N/A   Clear
6:53 PM 32.0 °F 27.5 °F 30.0 °F 92% 30.01 in 10.0 mi SSE 4.6 mph - N/A   Partly Cloudy
7:53 PM 37.0 °F 34.5 °F 30.9 °F 79% 30.00 in 10.0 mi WSW 3.5 mph - N/A   Overcast
8:53 PM 41.0 °F 33.9 °F 32.0 °F 70% 30.00 in 10.0 mi SW 12.7 mph - N/A   Overcast
9:53 PM 39.9 °F 32.9 °F 32.0 °F 73% 30.00 in 10.0 mi SW 11.5 mph - N/A   Overcast
10:53 PM 39.0 °F 31.8 °F 32.0 °F 76% 29.99 in 10.0 mi SW 11.5 mph - N/A   Overcast
11:53 PM 37.9 °F 35.5 °F 30.0 °F 73% 29.99 in 10.0 mi WSW 3.5 mph - N/A   Scattered Clouds